Weather History for Torrington, WY

Change the Weather History Date:

Wednesday, September 18, 2013

  Actual Average Record
Temperature  
Mean Temperature 69 °F 60 °F  
Max Temperature 85 °F 76 °F 95 °F (2004)
Min Temperature 53 °F 43 °F 33 °F (2003)
Degree Days  
Heating Degree Days 0 6  
Month to date heating degree days 17 68  
Since 1 July heating degree days 19 90  
Cooling Degree Days 4 1  
Month to date cooling degree days 117 40  
Year to date cooling degree days 890 673  
Growing Degree Days 18 (Base 50)    
Moisture  
Dew Point 49 °F    
Average Humidity 61    
Maximum Humidity 93    
Minimum Humidity 28    
Precipitation  
Precipitation T in 0.04 in 0.03 in (2010)
Month to date precipitation 1.59 0.80  
Year to date precipitation 8.40 11.76  
Sea Level Pressure  
Sea Level Pressure 29.66 in    
Wind  
Wind Speed 8 mph (WSW)    
Max Wind Speed 24 mph    
Max Gust Speed 36 mph    
Visibility 10 miles    
Events      
T = Trace of Precipitation, MM = Missing Value Source: NWS Daily Summary

Daily Weather History Graph

Daily Weather History Graph

Search for Another Location

Airport:

Trip Planner

Search our weather history database for the weather conditions in past years. The results will help you decide how hot, cold, wet, or windy it might be!

Date:

Astronomy

Sep. 18, 2013 Rise Set
Actual Time 6:40 AM MDT 7:00 PM MDT
Civil Twilight 6:12 AM MDT 7:28 PM MDT
Nautical Twilight 5:39 AM MDT 8:01 PM MDT
Astronomical Twilight 5:05 AM MDT 8:34 PM MDT
Moon 6:24 PM MDT (9/18) 5:45 AM MDT (9/18)
Length of Visible Light 13h 16m
Length of Day
12h 20m
Waxing Gibbous, 99% of the Moon is Illuminated
Sep 18
Waxing Gibbous
Sep 19
Full
Sep 26
Last Quarter
Oct 4
New
Oct 11
First Quarter

Hourly Weather History & Observations

Time (MDT) Temp. Dew Point Humidity Pressure Visibility Wind Dir Wind Speed Gust Speed Precip Events Conditions
12:53 AM 60.1 °F 51.1 °F 72% 29.63 in 10.0 mi East 4.6 mph - N/A   Clear
1:53 AM 60.1 °F 51.1 °F 72% 29.62 in 10.0 mi SE 3.5 mph - N/A   Clear
2:53 AM 55.9 °F 50.0 °F 80% 29.61 in 10.0 mi ESE 4.6 mph - N/A   Clear
3:53 AM 59.0 °F 48.9 °F 69% 29.60 in 10.0 mi SE 4.6 mph - N/A   Clear
4:53 AM 57.0 °F 48.9 °F 74% 29.62 in 10.0 mi Calm Calm - N/A   Clear
5:53 AM 55.9 °F 50.0 °F 80% 29.64 in 10.0 mi North 9.2 mph - N/A   Clear
6:53 AM 54.0 °F 51.1 °F 90% 29.68 in 10.0 mi South 3.5 mph - N/A   Clear
7:53 AM 55.9 °F 52.0 °F 87% 29.69 in 10.0 mi Calm Calm - N/A   Clear
8:53 AM 57.9 °F 53.1 °F 84% 29.68 in 10.0 mi NNW 3.5 mph - N/A   Clear
9:53 AM 64.9 °F 54.0 °F 68% 29.68 in 10.0 mi Calm Calm - N/A   Clear
10:53 AM 73.0 °F 52.0 °F 48% 29.65 in 10.0 mi West 4.6 mph - N/A   Clear
11:53 AM 75.9 °F 53.1 °F 45% 29.66 in 10.0 mi WSW 4.6 mph - N/A   Clear
12:53 PM 79.0 °F 52.0 °F 39% 29.63 in 10.0 mi SW 10.4 mph - N/A   Clear
1:53 PM 82.9 °F 50.0 °F 32% 29.61 in 10.0 mi SW 18.4 mph 24.2 mph N/A   Clear
2:53 PM 82.9 °F 46.9 °F 28% 29.62 in 10.0 mi SW 13.8 mph 21.9 mph N/A   Clear
3:53 PM 80.1 °F 48.9 °F 34% 29.62 in 10.0 mi WSW 13.8 mph 24.2 mph N/A   Clear
4:53 PM 80.1 °F 46.9 °F 31% 29.62 in 10.0 mi West 8.1 mph - N/A   Clear
5:53 PM 79.0 °F 48.9 °F 35% 29.63 in 10.0 mi SW 9.2 mph - N/A   Clear
6:53 PM 73.0 °F 48.0 °F 41% 29.69 in 10.0 mi West 25.3 mph 32.2 mph N/A   Scattered Clouds
7:53 PM 68.0 °F 45.0 °F 43% 29.70 in 10.0 mi WNW 9.2 mph - 0.00 in   Scattered Clouds
8:53 PM 66.0 °F 46.9 °F 50% 29.72 in 10.0 mi NW 6.9 mph - N/A   Clear
9:53 PM 63.0 °F 48.0 °F 58% 29.73 in 10.0 mi West 4.6 mph - N/A   Scattered Clouds
10:53 PM 62.1 °F 48.0 °F 60% 29.74 in 10.0 mi Calm Calm - N/A   Clear
11:53 PM 62.1 °F 43.0 °F 50% 29.75 in 10.0 mi NW 11.5 mph - N/A   Clear